SCIP

Mataveri Airport

Airport
ICAO code
SCIP
IATA Code
IPC
Summary
ICAO Region
CARSAM
ICAO Territory
Location

Hanga Roa, Valparaiso

Serving
Easter Island
Elevation
227 ft
Coordinates
27° 9' 53" S , 109° 25' 19" W
KCC
Metar
SCIP 180300Z 13016KT 9999 SCT034 SCT065 20/13 Q1021 NOSIG

International airport serving Easter Island.

Climatology

Tropical rainforest climate (Köppen climate classification Af)

Runways

Designator Length Width Surface Rops
10/28 3300 45 ASP Yes/Yes

Airport map

Aerial View

SKYbrary Partners:

Safety knowledge contributed by: